The Greater Haywards Heath Bike Ride 2017
Skip Navigation Links
Results
Teams
Leaderboard
Details
Mobile Results
02 April 2017
HyperLink
Page 1 of 1 (38 items)
Race No
Fav
Name
Last Name
Net Time
Age
Gender
Team
Pace
392SteveGroombridge04:03:1050Male 18.0 m/hr
421Andrewwebb04:06:1148Male 17.8 m/hr
257RobertSkilton04:07:1557Male 17.7 m/hr
265SigveSolheim04:07:3947Male 17.7 m/hr
416AndrewCowie04:17:0919Male 17.0 m/hr
414JulianBenasiewicz04:17:1555Male 17.0 m/hr
334PeterWilliams04:27:2534Male 16.4 m/hr
440StephenRatford04:49:1664Male 15.1 m/hr
52WillChew04:51:0135Male 15.1 m/hr
283RichardThompson04:51:0133MaleFul-on-Tri15.1 m/hr
144ChristianJudd04:51:0525Male 15.0 m/hr
430brucePinchard04:54:1045Male 14.9 m/hr
35JonathanBugg04:59:5042MaleNuffield Health14.6 m/hr
384PiersWebster05:05:5143Male 14.3 m/hr
429DavidMarshall05:13:5052Male 14.0 m/hr
90AndrewFrench05:20:2452Male 13.7 m/hr
19RichardBarnes05:21:5250MaleRichard Barnes13.6 m/hr
289GlennWatts05:21:5444MaleLindfield Warriors13.6 m/hr
293AngusWells05:23:3451MaleRoyal Air Force Cycling13.5 m/hr
229TuncaRodoplu05:25:5935MaleEaling Triathletes 13.4 m/hr
89KeithFreegard05:26:0258MaleEaling Triathletes 13.4 m/hr
108IgorGurzhuenko05:27:2754Male 13.4 m/hr
170RobertMitchell05:29:1259Male 13.3 m/hr
232JonathanRowland05:31:5551MaleTeam Angus13.2 m/hr
11TimAspeling05:31:5653Male 13.2 m/hr
306RichardButler05:40:0046Male 12.9 m/hr
136AlastairIrvine05:50:0039Male 12.5 m/hr
350DarrenBotting05:57:1651Male 12.3 m/hr
50OwainCharles05:58:0842Male 12.2 m/hr
230EwoutRoozendaal05:58:5340Male 12.2 m/hr
203VirginiaPonsford06:18:3938Female 11.6 m/hr
333RobertFrith06:18:4138Male 11.6 m/hr
332Timjones06:18:4534Male 11.6 m/hr
242KathrynSanders06:36:1436FemaleCrawley Wheelers11.1 m/hr
31ClaireBrennan06:36:1540FemaleCrawley Wheelers11.1 m/hr
432DebbieCarpenter06:36:1548Female 11.1 m/hr
431SimonDavies06:38:0044Male 11.0 m/hr
448SharonChladek06:38:0251Female 11.0 m/hr
Page 1 of 1 (38 items)

HyperLink Copyright (c) G Vincent, 2017